Página principal
METAR-TAF:

METAR-TAF

Aeroportos :

La Gomera, Espanha

latitude: 28-01-47N, longitude: 017-12-53W, altura: 218 m

Observação actual do tempo

O boletim foi feito há 29 minutos, às 20:30 UTC
Vento 3 kt de su-sudoeste
Temperatura 22°C
Humidade 78%
Pressão 1018 hPa
Visibilidade 10 km ou mais

METAR: GCGM 172030Z AUTO 21003KT 9999 NCD 22/18 Q1018 RMK R09/VRB02KT ARP/VRB02KT

Hora: 21:59 (20:59 UTC)


TAF: em falta

Observações e previsões do tempo de mais de 4000 aeroportos (mensagens METAR e TAF).

As estações disponíveis são os pontos amarelos e vermelhos sobre o mapa.

Mova o rato sobre o mapa para ver o nome da estação.

Depois clique no ponto para visualizar as observações e previsões meteorológicas.

Para alterar o mapa : clique nos botões verdes com uma cruz preta para aumentar o zoom; no botão verde com uma pitada de zoom; ou nas setas verdes para mapas adjacentes.


METAR-TAF: